sat.trackr.live / text

‹ back to catalog

GALAXY 17 (G-17)

NORAD 31307 · 2007-016B

PAYLOAD ACTIVE UNKNOWN

§ Identity

Operator
Country
US
Launch date
2007-05-04
Launch site
FRGUI
Launch vehicle
Mass (kg)
RCS (m²)
12.68

Purposes: comms

External: N2YO · Heavens-Above · Gunter

§ Orbital elements

Epoch: 2026-05-25T02:52:43.157280Z

Period
1,436.09 min
Inclination
2.9163°
Eccentricity
0.0004463
Mean motion
1.00272585 rev/d
Perigee alt
35,767.6 km
Apogee alt
35,805.2 km
Semi-major
42,164.5 km
B*
0.0000e+0
RAAN
80.1810°
Arg perigee
359.8115°
Mean anomaly
120.8926°
Rev number
6,957

§ Raw data

GALAXY 17 (G-17)1 31307U 07016B   26145.11994395 -.00000208  00000+0  00000+0 0  99962 31307   2.9163  80.1810 0004463 359.8115 120.8926  1.00272585 69579

JSON: /api/v1/satellites/31307 · /tle

For live sub-satellite position, see the globe view (requires WebGL).

§ Visibility from observer

Set your observer location to see the next 7 days of passes ≥ 10°. The values pass through the URL so the page stays shareable.

No JS? Fill the form by hand. The geolocation button needs JavaScript.